This is the latest recevied weather packets stored in our database for station/object KS5S. If no packets are shown the sender has not sent any weather packets the latest 10 day(s).
| Time | Temp. | Humidity | Pressure | Rain* | Wind** | Luminosity | Snow |
|---|---|---|---|---|---|---|---|
| 1777494532 | 17.78° C | 86% | 1010.8 hPa | 0 mm | - | 341 W/m² | - |
| 1777494229 | 17.78° C | 87% | 1010.8 hPa | 0 mm | - | 316 W/m² | - |
| 1777493926 | 18.33° C | 88% | 1010.5 hPa | 0 mm | - | 453 W/m² | - |
| 1777493624 | 17.78° C | 88% | 1010.6 hPa | 0 mm | - | 587 W/m² | - |
| 1777493321 | 17.78° C | 89% | 1010.7 hPa | 0 mm | - | 344 W/m² | - |
| 1777493017 | 17.22° C | 94% | 1010.7 hPa | 0 mm | - | 415 W/m² | - |
| 1777492714 | 16.67° C | 96% | 1010.6 hPa | 0 mm | - | 662 W/m² | - |
| 1777492413 | 16.11° C | 96% | 1010.8 hPa | 0 mm | - | 810 W/m² | - |
| 1777492112 | 15.56° C | 96% | 1010.9 hPa | 0 mm | - | 479 W/m² | - |
| 1777491808 | 15.56° C | 96% | 1012.2 hPa | 0 mm | - | 215 W/m² | - |
| 1777491505 | 15.56° C | 96% | 1012.1 hPa | 0 mm | - | 221 W/m² | - |
| 1777491203 | 15.56° C | 96% | 1011.8 hPa | 0 mm | - | 144 W/m² | - |
| 1777490898 | 15.56° C | 96% | 1012.5 hPa | 0 mm | - | 126 W/m² | - |
| 1777490594 | 15.56° C | 96% | 1012.5 hPa | 0 mm | - | 127 W/m² | - |
| 1777490290 | 15° C | 96% | 1012.7 hPa | 0 mm | - | 227 W/m² | - |
| 1777489988 | 15° C | 96% | 1012.4 hPa | 0 mm | - | 187 W/m² | - |
| 1777489686 | 15° C | 96% | 1012.7 hPa | 0 mm | - | 109 W/m² | - |
| 1777489382 | 15° C | 96% | 1012.7 hPa | 0 mm | - | 172 W/m² | - |
| 1777489079 | 15° C | 96% | 1012.4 hPa | 0 mm | - | 280 W/m² | - |
| 1777488776 | 15° C | 96% | 1013 hPa | 0 mm | - | 226 W/m² | - |
| 1777488474 | 15° C | 96% | 1012.2 hPa | 3.05 mm | - | 266 W/m² | - |
| 1777488172 | 15.56° C | 96% | 1011.4 hPa | 16.76 mm | - | 1325 W/m² | - |
| 1777487869 | 14.44° C | 96% | 1011.5 hPa | 30.73 mm | - | 327 W/m² | - |
| 1777487567 | 14.44° C | 95% | 1013 hPa | 37.85 mm | - | 78 W/m² | - |
| 1777487264 | 15° C | 93% | 1013.5 hPa | 29.97 mm | - | 42 W/m² | - |
* Rain latest hour (hover to see other rain measurements)
** Current wind speed in m/s (hover to see current wind gust speed)